Terminal Aerodrome Forecast
Issued by NWS

Home | Current Version | Previous Version | Text Only | Print | Product List | Glossary On
Versions: 1 2 3 4 5 6 7 8 9 10 11 12 13 14 15 16 17 18 19 20 21 22 23 24 25 26 27 28 29 30 31 32 33 34 35 36 37 38 39 40 41 42 43 44 45 46 47 48 49 50
000
FTUS44 KFWD 251131
TAFAFW
TAF
KAFW 251131Z 2512/2612 14006KT P6SM FEW010 OVC250
     FM251300 17009KT P6SM SCT025 BKN060 BKN150
     FM252200 18012KT P6SM VCTS BKN070CB
     FM260000 15011KT P6SM SCT090 BKN300=

USA.gov is the U.S. government's official web portal to all federal, state and local government web resources and services.